contact:dominique.lefevre@mio.osupytheas.fr, maurice.libes@osupytheas.fr, didier.mallarino@osupytheas.fr
Project:EMSO http://www.emso-fr.org/EMSO-France
Depth: 2436.0 m
Title:EMSO Ligure Ouest : Data MII capteur AQUADOPP
Date,Latitude,Longitude,X_East,Y_North,Z_Up,Amplitude_X,Amplitude_Y,Amplitude_Z,Batterie,SoundSpeed,Heading,Pitch,Roll,Pressure,TIS,Speed,Direction
, degrees North, degrees East, m.s-1, m.s-1,m.s-1, 1, 1, 1, Volt, m.s-1, degree, degree, degree, dbar, degree_C, m.s-1, degree
2019-12-31T00:04:03,42.805,6.029,-0.012,0.02,-0.025,109.0,111.0,106.0,13.4,1505.3,324.9,-0.7,1.8,2470.331,13.31,0.023,329.0
2019-12-31T00:07:03,42.805,6.029,0.002,0.025,-0.015,109.0,109.0,107.0,13.4,1505.3,326.0,-0.7,1.8,2470.297,13.32,0.025,4.6
2019-12-31T00:10:03,42.805,6.029,-0.022,0.011,0.004,109.0,112.0,104.0,13.4,1505.3,325.3,-0.7,1.8,2470.284,13.32,0.024,296.6
2019-12-31T00:13:03,42.805,6.029,-0.001,0.006,-0.01,110.0,111.0,105.0,13.3,1505.3,324.9,-0.7,1.8,2470.295,13.33,0.006,350.5
2019-12-31T00:16:03,42.805,6.029,-0.019,-0.001,0.018,109.0,113.0,103.0,13.4,1505.3,327.4,-0.7,1.8,2470.28,13.33,0.019,267.0
2019-12-31T00:19:03,42.805,6.029,-0.041,0.011,-0.02,107.0,113.0,107.0,13.4,1505.3,328.1,-0.7,1.8,2470.338,13.33,0.042,285.0
2019-12-31T00:22:03,42.805,6.029,-0.004,0.018,-0.006,111.0,111.0,106.0,13.4,1505.3,328.2,-0.7,1.8,2470.252,13.33,0.018,347.5
2019-12-31T00:25:03,42.805,6.029,-0.013,0.027,-0.026,108.0,110.0,105.0,13.4,1505.3,324.3,-0.7,1.8,2470.312,13.33,0.029,334.3
2019-12-31T00:28:03,42.805,6.029,-0.016,0.017,-0.034,108.0,111.0,106.0,13.3,1505.3,326.4,-0.7,1.8,2470.29,13.33,0.023,316.7
2019-12-31T00:31:03,42.805,6.029,-0.039,0.005,-0.03,109.0,110.0,104.0,13.4,1505.3,323.5,-0.7,1.8,2470.291,13.33,0.039,277.3
2019-12-31T00:34:03,42.805,6.029,-0.02,0.008,-0.002,109.0,112.0,105.0,13.4,1505.3,328.2,-0.7,1.8,2470.289,13.33,0.021,291.8
2019-12-31T00:37:03,42.805,6.029,-0.016,0.016,-0.001,108.0,111.0,105.0,13.3,1505.3,327.0,-0.7,1.8,2470.255,13.33,0.022,315.0
2019-12-31T00:40:03,42.805,6.029,-0.043,0.008,0.006,108.0,111.0,105.0,13.4,1505.3,323.1,-0.7,1.8,2470.308,13.33,0.043,280.5
2019-12-31T00:43:03,42.805,6.029,-0.042,0.013,-0.053,109.0,111.0,104.0,13.3,1505.3,326.2,-0.7,1.8,2470.313,13.33,0.043,287.2
2019-12-31T00:46:03,42.805,6.029,-0.035,0.009,-0.007,110.0,111.0,107.0,13.4,1505.3,326.5,-0.7,1.8,2470.264,13.33,0.036,284.4
2019-12-31T00:49:03,42.805,6.029,-0.04,0.01,-0.028,108.0,109.0,104.0,13.4,1505.3,326.4,-0.7,1.8,2470.258,13.33,0.041,284.0
2019-12-31T00:52:03,42.805,6.029,-0.028,0.027,-0.005,109.0,111.0,108.0,13.3,1505.3,326.3,-0.7,1.8,2470.288,13.33,0.038,314.0
2019-12-31T00:55:03,42.805,6.029,-0.029,0.012,-0.026,107.0,113.0,105.0,13.3,1505.3,324.2,-0.7,1.8,2470.27,13.33,0.031,292.5
2019-12-31T00:58:03,42.805,6.029,0.0,0.029,0.015,108.0,111.0,105.0,13.3,1505.3,328.6,-0.7,1.8,2470.315,13.33,0.028,0.0
2019-12-31T01:04:03,42.805,6.029,-0.027,0.039,-0.028,110.0,114.0,106.0,13.4,1505.3,324.2,-0.7,1.8,2470.309,13.31,0.047,325.3
2019-12-31T01:07:04,42.805,6.029,-0.046,-0.002,-0.051,108.0,112.0,105.0,13.4,1505.3,324.7,-0.7,1.8,2470.272,13.32,0.046,267.5
2019-12-31T01:10:03,42.805,6.029,-0.016,0.015,-0.01,109.0,111.0,106.0,13.4,1505.3,326.7,-0.7,1.8,2470.303,13.33,0.021,313.1
2019-12-31T01:13:03,42.805,6.029,-0.024,0.0,0.008,108.0,110.0,105.0,13.3,1505.3,323.4,-0.8,1.9,2470.28,13.33,0.024,270.0
2019-12-31T01:19:03,42.805,6.029,-0.046,0.0,-0.019,110.0,112.0,104.0,13.4,1505.3,325.5,-0.7,1.8,2470.341,13.31,0.046,270.0
2019-12-31T01:22:03,42.805,6.029,-0.045,-0.002,-0.007,108.0,110.0,104.0,13.3,1505.3,328.6,-0.7,1.8,2470.305,13.32,0.045,267.5
2019-12-31T01:25:03,42.805,6.029,-0.036,0.026,-0.029,107.0,111.0,105.0,13.4,1505.3,324.2,-0.8,1.9,2470.298,13.32,0.044,305.8
2019-12-31T01:28:03,42.805,6.029,0.006,0.007,0.011,108.0,113.0,104.0,13.4,1505.3,325.1,-0.7,1.8,2470.267,13.33,0.009,40.6
2019-12-31T01:31:03,42.805,6.029,-0.01,0.021,-0.024,108.0,114.0,103.0,13.3,1505.3,327.1,-0.7,1.9,2470.294,13.33,0.023,334.5
2019-12-31T01:34:03,42.805,6.029,-0.041,0.014,-0.028,108.0,110.0,105.0,13.4,1505.3,323.0,-0.7,1.8,2470.283,13.33,0.043,288.9
2019-12-31T01:37:03,42.805,6.029,-0.026,0.02,-0.02,108.0,112.0,105.0,13.3,1505.3,327.1,-0.7,1.8,2470.265,13.33,0.032,307.6
2019-12-31T01:40:03,42.805,6.029,-0.05,-0.007,-0.017,109.0,111.0,104.0,13.4,1505.3,326.7,-0.7,1.8,2470.254,13.33,0.05,262.0
2019-12-31T01:43:03,42.805,6.029,-0.066,0.018,-0.059,110.0,112.0,104.0,13.3,1505.3,326.5,-0.7,1.9,2470.3,13.33,0.068,285.3
2019-12-31T01:46:03,42.805,6.029,-0.02,-0.002,-0.017,108.0,112.0,105.0,13.4,1505.3,328.5,-0.7,1.9,2470.253,13.33,0.02,264.3
2019-12-31T01:49:03,42.805,6.029,-0.006,0.009,0.0,109.0,110.0,103.0,13.4,1505.3,323.7,-0.7,1.8,2470.279,13.33,0.01,326.3
2019-12-31T01:52:03,42.805,6.029,-0.042,0.01,-0.03,108.0,112.0,104.0,13.4,1505.3,324.5,-0.7,1.8,2470.242,13.33,0.043,283.4
2019-12-31T01:55:03,42.805,6.029,-0.038,-0.009,-0.031,109.0,113.0,103.0,13.4,1505.3,327.3,-0.7,1.8,2470.246,13.33,0.039,256.7
2019-12-31T01:58:03,42.805,6.029,-0.04,0.029,-0.047,109.0,111.0,104.0,13.3,1505.3,324.6,-0.7,1.8,2470.256,13.33,0.049,305.9
2019-12-31T02:04:03,42.805,6.029,-0.039,0.004,-0.044,109.0,113.0,105.0,13.3,1505.3,323.3,-0.8,1.8,2470.29,13.31,0.039,275.9
2019-12-31T02:07:03,42.805,6.029,-0.014,0.015,-0.036,112.0,111.0,106.0,13.3,1505.3,325.8,-0.7,1.8,2470.304,13.32,0.02,317.0
2019-12-31T02:10:03,42.805,6.029,-0.046,-0.002,-0.003,108.0,113.0,106.0,13.3,1505.3,326.7,-0.7,1.9,2470.337,13.33,0.046,267.5
2019-12-31T02:13:03,42.805,6.029,-0.02,0.007,-0.045,108.0,111.0,105.0,13.4,1505.3,325.7,-0.7,1.8,2470.244,13.33,0.021,289.3
2019-12-31T02:16:03,42.805,6.029,-0.042,0.018,-0.043,109.0,114.0,103.0,13.3,1505.3,324.3,-0.7,1.8,2470.274,13.33,0.045,293.2
2019-12-31T02:19:03,42.805,6.029,-0.02,0.008,-0.046,110.0,113.0,103.0,13.3,1505.3,324.5,-0.7,1.8,2470.287,13.33,0.021,291.8
2019-12-31T02:22:03,42.805,6.029,-0.056,0.005,-0.05,110.0,113.0,104.0,13.4,1505.3,327.1,-0.7,1.9,2470.264,13.33,0.056,275.1
2019-12-31T02:25:03,42.805,6.029,-0.012,-0.001,-0.025,109.0,113.0,105.0,13.4,1505.3,325.5,-0.7,1.9,2470.287,13.33,0.012,265.2
2019-12-31T02:28:03,42.805,6.029,-0.035,-0.016,-0.037,108.0,112.0,104.0,13.4,1505.3,325.4,-0.7,1.8,2470.299,13.33,0.038,245.4
2019-12-31T02:31:03,42.805,6.029,-0.031,0.0,-0.033,108.0,113.0,104.0,13.4,1505.3,325.1,-0.7,1.8,2470.234,13.33,0.03,270.0
2019-12-31T02:34:03,42.805,6.029,-0.053,-0.004,-0.039,109.0,114.0,104.0,13.4,1505.3,327.2,-0.7,1.9,2470.271,13.33,0.053,265.7
2019-12-31T02:37:03,42.805,6.029,-0.003,0.003,0.013,109.0,112.0,105.0,13.4,1505.3,324.8,-0.7,1.9,2470.29,13.33,0.004,315.0
2019-12-31T02:40:03,42.805,6.029,-0.015,-0.01,-0.032,111.0,112.0,105.0,13.4,1505.3,328.4,-0.7,1.8,2470.269,13.33,0.018,236.3
2019-12-31T02:43:03,42.805,6.029,-0.031,-0.011,-0.029,109.0,113.0,106.0,13.3,1505.3,325.0,-0.7,1.8,2470.231,13.33,0.032,250.5
2019-12-31T02:46:03,42.805,6.029,-0.027,0.016,-0.031,108.0,112.0,105.0,13.4,1505.3,326.9,-0.7,1.8,2470.267,13.33,0.031,300.7
2019-12-31T02:49:03,42.805,6.029,-0.011,-0.005,-0.022,107.0,111.0,105.0,13.4,1505.3,323.2,-0.7,1.8,2470.196,13.33,0.012,245.6
2019-12-31T02:52:03,42.805,6.029,-0.007,0.002,-0.023,110.0,111.0,106.0,13.3,1505.3,324.7,-0.8,1.8,2470.243,13.33,0.007,285.9
2019-12-31T02:55:03,42.805,6.029,-0.024,0.003,0.01,109.0,110.0,104.0,13.4,1505.3,323.7,-0.7,1.8,2470.269,13.33,0.024,277.1
2019-12-31T02:58:03,42.805,6.029,-0.015,0.019,-0.003,109.0,113.0,104.0,13.3,1505.3,325.9,-0.7,1.8,2470.241,13.33,0.024,321.7
2019-12-31T03:01:03,42.805,6.029,0.0,0.012,0.0,109.0,113.0,104.0,13.4,1505.3,327.0,-0.7,1.8,2470.27,13.33,0.012,0.0
2019-12-31T03:04:03,42.805,6.029,-0.007,-0.016,-0.04,108.0,108.0,104.0,13.4,1505.3,325.7,-0.7,1.8,2470.255,13.33,0.017,203.6
2019-12-31T03:07:03,42.805,6.029,-0.014,-0.011,-0.001,109.0,112.0,103.0,13.3,1505.3,324.7,-0.7,1.9,2470.252,13.33,0.017,231.8
2019-12-31T03:10:03,42.805,6.029,-0.005,0.003,-0.009,108.0,108.0,104.0,13.4,1505.3,325.4,-0.7,1.8,2470.202,13.33,0.005,301.0
2019-12-31T03:13:03,42.805,6.029,0.0,-0.008,-0.018,109.0,113.0,104.0,13.3,1505.3,328.1,-0.7,1.8,2470.266,13.33,0.008,180.0
2019-12-31T03:16:03,42.805,6.029,-0.013,-0.005,0.011,109.0,109.0,104.0,13.3,1505.3,326.9,-0.7,1.8,2470.276,13.33,0.013,249.0
2019-12-31T03:19:03,42.805,6.029,0.001,-0.01,0.002,108.0,111.0,106.0,13.4,1505.3,327.7,-0.7,1.8,2470.248,13.33,0.01,174.3
2019-12-31T03:22:03,42.805,6.029,-0.001,0.02,-0.008,107.0,111.0,105.0,13.4,1505.3,323.2,-0.7,1.9,2470.267,13.33,0.02,357.1
2019-12-31T03:25:03,42.805,6.029,-0.021,-0.01,-0.014,109.0,110.0,105.0,13.4,1505.3,326.1,-0.7,1.8,2470.241,13.33,0.023,244.5
2019-12-31T03:28:03,42.805,6.029,-0.005,0.009,0.022,109.0,112.0,103.0,13.4,1505.3,324.7,-0.7,1.8,2470.276,13.33,0.01,330.9
2019-12-31T03:31:03,42.805,6.029,-0.023,0.017,0.0,107.0,110.0,106.0,13.4,1505.3,326.6,-0.7,1.8,2470.264,13.33,0.028,306.5
2019-12-31T03:34:03,42.805,6.029,-0.011,-0.023,0.008,109.0,110.0,104.0,13.3,1505.3,323.8,-0.7,1.8,2470.257,13.33,0.025,205.6
2019-12-31T03:37:03,42.805,6.029,-0.029,-0.001,0.0,109.0,111.0,104.0,13.4,1505.3,325.3,-0.7,1.8,2470.243,13.33,0.029,268.0
2019-12-31T03:40:03,42.805,6.029,-0.009,-0.007,-0.008,109.0,110.0,105.0,13.4,1505.3,324.1,-0.7,1.8,2470.231,13.33,0.011,232.1
2019-12-31T03:43:03,42.805,6.029,-0.004,-0.009,0.03,110.0,112.0,105.0,13.3,1505.3,326.1,-0.7,1.9,2470.279,13.33,0.009,204.0
2019-12-31T03:46:03,42.805,6.029,-0.005,-0.007,-0.009,107.0,110.0,103.0,13.4,1505.3,326.6,-0.7,1.8,2470.308,13.33,0.008,215.5
2019-12-31T03:49:03,42.805,6.029,0.0,-0.024,0.004,108.0,110.0,106.0,13.4,1505.3,326.6,-0.7,1.8,2470.285,13.33,0.024,180.0
2019-12-31T03:52:03,42.805,6.029,-0.021,0.004,-0.01,110.0,112.0,105.0,13.4,1505.3,326.5,-0.7,1.8,2470.254,13.33,0.021,280.8
2019-12-31T03:55:03,42.805,6.029,-0.017,-0.019,-0.004,108.0,112.0,104.0,13.4,1505.3,325.2,-0.7,1.8,2470.301,13.33,0.025,221.8
2019-12-31T03:58:03,42.805,6.029,-0.007,0.008,0.006,108.0,112.0,106.0,13.3,1505.3,323.7,-0.7,1.9,2470.232,13.33,0.01,318.8
2019-12-31T04:04:03,42.805,6.029,-0.021,0.001,-0.042,109.0,112.0,106.0,13.3,1505.3,323.4,-0.7,1.8,2470.321,13.31,0.021,272.7
2019-12-31T04:07:03,42.805,6.029,-0.023,0.011,-0.023,107.0,110.0,105.0,13.4,1505.3,325.6,-0.7,1.8,2470.258,13.31,0.025,295.6
2019-12-31T04:10:03,42.805,6.029,-0.016,-0.004,-0.01,108.0,110.0,104.0,13.4,1505.3,327.1,-0.7,1.8,2470.225,13.32,0.016,256.0
2019-12-31T04:13:03,42.805,6.029,-0.032,-0.013,-0.001,110.0,113.0,104.0,13.4,1505.3,323.5,-0.7,1.9,2470.295,13.32,0.034,247.9
2019-12-31T04:16:03,42.805,6.029,-0.01,0.0,-0.018,110.0,113.0,104.0,13.3,1505.3,327.0,-0.7,1.8,2470.219,13.33,0.01,270.0
2019-12-31T04:19:03,42.805,6.029,-0.008,-0.011,-0.032,109.0,112.0,104.0,13.4,1505.3,326.5,-0.7,1.8,2470.242,13.33,0.013,216.0
2019-12-31T04:22:03,42.805,6.029,-0.023,-0.032,-0.006,110.0,110.0,103.0,13.4,1505.3,327.7,-0.8,1.8,2470.229,13.33,0.039,215.7
2019-12-31T04:25:03,42.805,6.029,-0.027,-0.016,-0.021,111.0,111.0,104.0,13.4,1505.3,323.9,-0.7,1.9,2470.247,13.33,0.031,239.3
2019-12-31T04:28:03,42.805,6.029,-0.005,0.017,-0.032,109.0,112.0,106.0,13.4,1505.3,326.8,-0.7,1.8,2470.294,13.33,0.017,343.6
2019-12-31T04:31:03,42.805,6.029,-0.034,-0.009,-0.024,110.0,111.0,104.0,13.4,1505.3,326.9,-0.7,1.8,2470.276,13.33,0.035,255.2
2019-12-31T04:34:03,42.805,6.029,-0.047,-0.005,-0.039,108.0,112.0,106.0,13.4,1505.3,326.9,-0.8,1.8,2470.267,13.33,0.047,263.9
2019-12-31T04:37:03,42.805,6.029,-0.018,-0.015,-0.007,109.0,110.0,104.0,13.3,1505.3,327.8,-0.7,1.8,2470.276,13.33,0.023,230.2
2019-12-31T04:40:03,42.805,6.029,-0.042,-0.009,-0.025,110.0,113.0,104.0,13.3,1505.3,326.0,-0.7,1.8,2470.2,13.33,0.042,257.9
2019-12-31T04:43:03,42.805,6.029,-0.045,-0.011,0.003,109.0,109.0,105.0,13.4,1505.3,327.8,-0.7,1.8,2470.307,13.33,0.046,256.3
2019-12-31T04:46:03,42.805,6.029,-0.01,-0.009,-0.018,109.0,109.0,105.0,13.3,1505.3,326.7,-0.7,1.8,2470.247,13.33,0.013,228.0
2019-12-31T04:49:03,42.805,6.029,-0.035,-0.016,-0.035,108.0,110.0,106.0,13.3,1505.3,326.9,-0.7,1.8,2470.257,13.33,0.038,245.4
2019-12-31T04:52:03,42.805,6.029,-0.024,-0.013,-0.02,109.0,111.0,105.0,13.4,1505.3,326.0,-0.7,1.9,2470.222,13.33,0.027,241.6
2019-12-31T04:55:03,42.805,6.029,-0.016,0.0,-0.004,110.0,110.0,104.0,13.3,1505.3,327.7,-0.7,1.8,2470.257,13.33,0.016,270.0
2019-12-31T04:58:03,42.805,6.029,-0.037,0.017,0.001,109.0,110.0,105.0,13.4,1505.3,325.2,-0.7,1.8,2470.286,13.33,0.04,294.7
2019-12-31T05:04:03,42.805,6.029,-0.035,0.019,-0.046,109.0,110.0,106.0,13.3,1505.3,323.2,-0.7,1.8,2470.317,13.31,0.039,298.5
2019-12-31T05:07:03,42.805,6.029,-0.033,0.004,0.004,111.0,111.0,106.0,13.3,1505.3,327.0,-0.7,1.8,2470.343,13.31,0.033,276.9
2019-12-31T05:10:03,42.805,6.029,-0.048,-0.011,-0.05,109.0,112.0,106.0,13.3,1505.3,325.9,-0.7,1.8,2470.252,13.32,0.049,257.1
2019-12-31T05:13:03,42.805,6.029,-0.03,-0.016,-0.021,109.0,112.0,105.0,13.3,1505.3,328.4,-0.8,1.9,2470.229,13.32,0.034,241.9
2019-12-31T05:16:03,42.805,6.029,-0.038,-0.007,-0.031,109.0,111.0,105.0,13.4,1505.3,326.6,-0.7,1.8,2470.289,13.32,0.038,259.6
2019-12-31T05:19:03,42.805,6.029,-0.03,-0.005,-0.016,109.0,110.0,105.0,13.3,1505.3,327.9,-0.7,1.8,2470.264,13.33,0.03,260.5
2019-12-31T05:22:03,42.805,6.029,-0.03,-0.008,-0.008,109.0,110.0,106.0,13.4,1505.3,327.0,-0.7,1.8,2470.237,13.33,0.031,255.1
2019-12-31T05:25:03,42.805,6.029,-0.004,-0.021,0.025,110.0,109.0,105.0,13.4,1505.3,327.5,-0.7,1.8,2470.243,13.33,0.021,190.8
2019-12-31T05:28:03,42.805,6.029,-0.011,0.001,-0.043,109.0,109.0,105.0,13.4,1505.3,326.6,-0.7,1.8,2470.255,13.32,0.011,275.2
2019-12-31T05:31:03,42.805,6.029,-0.013,0.0,-0.008,109.0,111.0,106.0,13.4,1505.3,323.8,-0.7,1.8,2470.283,13.32,0.013,270.0
2019-12-31T05:34:03,42.805,6.029,-0.009,-0.011,-0.016,109.0,111.0,105.0,13.3,1505.3,327.2,-0.7,1.9,2470.266,13.33,0.014,219.3
2019-12-31T05:37:03,42.805,6.029,-0.014,-0.014,-0.001,109.0,111.0,106.0,13.4,1505.3,328.7,-0.7,1.8,2470.313,13.33,0.019,225.0
2019-12-31T05:40:03,42.805,6.029,-0.025,-0.007,-0.008,108.0,111.0,106.0,13.3,1505.3,323.9,-0.7,1.8,2470.253,13.33,0.025,254.4
2019-12-31T05:43:03,42.805,6.029,-0.007,0.009,0.007,108.0,112.0,107.0,13.3,1505.3,324.8,-0.7,1.8,2470.286,13.33,0.011,322.1
2019-12-31T05:46:03,42.805,6.029,-0.034,-0.028,0.002,110.0,110.0,105.0,13.4,1505.3,325.7,-0.7,1.8,2470.294,13.33,0.044,230.5
2019-12-31T05:49:03,42.805,6.029,-0.018,0.006,-0.017,109.0,110.0,105.0,13.4,1505.3,323.8,-0.8,1.8,2470.285,13.33,0.018,288.4
2019-12-31T05:52:03,42.805,6.029,-0.007,-0.015,0.006,111.0,111.0,105.0,13.4,1505.3,326.1,-0.7,1.8,2470.252,13.33,0.016,205.0
2019-12-31T05:55:03,42.805,6.029,0.003,-0.011,-0.017,110.0,112.0,105.0,13.3,1505.3,325.6,-0.8,1.8,2470.305,13.33,0.011,164.7
2019-12-31T05:58:03,42.805,6.029,-0.01,-0.006,-0.013,109.0,110.0,105.0,13.3,1505.3,327.7,-0.7,1.8,2470.291,13.33,0.011,239.0
2019-12-31T06:04:03,42.805,6.029,-0.016,-0.012,-0.001,110.0,110.0,106.0,13.3,1505.3,326.2,-0.7,1.8,2470.378,13.31,0.02,233.1
2019-12-31T06:07:03,42.805,6.029,-0.006,-0.011,-0.024,109.0,110.0,104.0,13.4,1505.3,323.5,-0.7,1.8,2470.302,13.31,0.012,208.6
2019-12-31T06:10:03,42.805,6.029,-0.025,0.002,-0.053,110.0,109.0,105.0,13.4,1505.3,323.9,-0.8,1.9,2470.297,13.32,0.025,274.6
2019-12-31T06:13:03,42.805,6.029,-0.032,-0.019,-0.016,109.0,111.0,104.0,13.4,1505.3,323.8,-0.7,1.9,2470.332,13.32,0.037,239.3
2019-12-31T06:16:03,42.805,6.029,-0.016,-0.007,-0.024,109.0,110.0,105.0,13.4,1505.3,327.9,-0.7,1.9,2470.35,13.32,0.017,246.4
2019-12-31T06:19:03,42.805,6.029,-0.012,-0.006,0.0,108.0,110.0,105.0,13.4,1505.3,328.0,-0.7,1.8,2470.309,13.32,0.013,243.4
2019-12-31T06:22:03,42.805,6.029,-0.025,-0.013,0.006,110.0,111.0,104.0,13.4,1505.3,326.2,-0.7,1.8,2470.307,13.32,0.028,242.5
2019-12-31T06:25:03,42.805,6.029,-0.02,-0.025,-0.03,109.0,111.0,105.0,13.4,1505.3,326.3,-0.7,1.9,2470.265,13.33,0.032,218.7
2019-12-31T06:28:03,42.805,6.029,-0.008,-0.002,-0.013,109.0,110.0,105.0,13.4,1505.3,323.7,-0.7,1.8,2470.325,13.33,0.008,256.0
2019-12-31T06:31:03,42.805,6.029,-0.028,-0.007,-0.028,110.0,110.0,106.0,13.4,1505.3,327.2,-0.7,1.8,2470.305,13.33,0.028,256.0
2019-12-31T06:34:03,42.805,6.029,0.016,-0.013,0.008,110.0,110.0,104.0,13.3,1505.3,327.6,-0.7,1.8,2470.296,13.33,0.02,129.1
2019-12-31T06:40:03,42.805,6.029,-0.021,-0.017,-0.043,109.0,110.0,105.0,13.4,1505.3,325.8,-0.7,1.8,2470.361,13.31,0.027,231.0
2019-12-31T06:43:03,42.805,6.029,-0.015,-0.014,-0.025,109.0,111.0,105.0,13.4,1505.3,327.2,-0.7,1.9,2470.346,13.31,0.02,227.0
2019-12-31T06:46:03,42.805,6.029,-0.017,-0.011,0.001,110.0,109.0,105.0,13.4,1505.3,326.0,-0.7,1.8,2470.302,13.32,0.02,237.1
2019-12-31T06:49:03,42.805,6.029,-0.01,-0.01,-0.029,109.0,110.0,106.0,13.3,1505.3,328.3,-0.7,1.9,2470.316,13.32,0.014,225.0
2019-12-31T06:52:03,42.805,6.029,-0.022,-0.033,-0.02,110.0,109.0,104.0,13.3,1505.3,325.1,-0.7,1.8,2470.35,13.32,0.039,213.7
2019-12-31T06:55:03,42.805,6.029,-0.03,-0.023,-0.011,109.0,110.0,103.0,13.3,1505.3,327.7,-0.7,1.8,2470.365,13.32,0.037,232.5
2019-12-31T06:58:03,42.805,6.029,-0.027,-0.013,-0.001,109.0,110.0,104.0,13.4,1505.3,324.0,-0.7,1.8,2470.326,13.32,0.029,244.3
2019-12-31T07:04:03,42.805,6.029,-0.024,-0.022,-0.005,108.0,109.0,105.0,13.3,1505.3,326.4,-0.7,1.8,2470.4,13.31,0.032,227.5
2019-12-31T07:07:03,42.805,6.029,-0.018,-0.043,-0.013,109.0,109.0,105.0,13.4,1505.3,324.4,-0.7,1.8,2470.37,13.31,0.046,202.7
2019-12-31T07:10:03,42.805,6.029,-0.002,-0.014,-0.046,109.0,111.0,104.0,13.4,1505.3,324.2,-0.7,1.8,2470.36,13.32,0.014,188.1
2019-12-31T07:13:03,42.805,6.029,-0.031,-0.011,-0.009,109.0,110.0,106.0,13.4,1505.3,326.6,-0.7,1.8,2470.377,13.32,0.032,250.5
2019-12-31T07:16:03,42.805,6.029,-0.05,-0.029,-0.033,111.0,109.0,105.0,13.4,1505.3,326.6,-0.7,1.8,2470.329,13.32,0.057,239.9
2019-12-31T07:19:03,42.805,6.029,-0.033,-0.023,-0.025,110.0,110.0,105.0,13.4,1505.3,323.7,-0.7,1.8,2470.378,13.32,0.04,235.1
2019-12-31T07:22:03,42.805,6.029,-0.034,-0.003,-0.038,109.0,110.0,104.0,13.3,1505.3,326.4,-0.7,1.8,2470.335,13.32,0.034,265.0
2019-12-31T07:25:03,42.805,6.029,-0.017,-0.011,-0.025,107.0,112.0,104.0,13.4,1505.3,326.2,-0.7,1.8,2470.414,13.32,0.02,237.1
2019-12-31T07:28:03,42.805,6.029,-0.013,-0.048,-0.008,110.0,109.0,104.0,13.4,1505.3,326.7,-0.7,1.9,2470.392,13.32,0.049,195.2
2019-12-31T07:31:03,42.805,6.029,-0.047,-0.038,-0.026,109.0,109.0,105.0,13.4,1505.3,326.7,-0.8,1.8,2470.381,13.32,0.06,231.0
2019-12-31T07:34:03,42.805,6.029,-0.013,-0.028,-0.038,107.0,110.0,105.0,13.4,1505.3,325.3,-0.7,1.8,2470.34,13.32,0.03,204.9
2019-12-31T07:37:03,42.805,6.029,-0.027,-0.015,-0.029,109.0,110.0,105.0,13.3,1505.3,323.6,-0.7,1.8,2470.355,13.32,0.03,240.9
2019-12-31T07:40:03,42.805,6.029,-0.043,-0.041,-0.014,107.0,108.0,106.0,13.4,1505.3,325.7,-0.7,1.8,2470.357,13.32,0.059,226.4
2019-12-31T07:43:03,42.805,6.029,-0.055,-0.023,-0.001,109.0,108.0,104.0,13.3,1505.3,328.4,-0.7,1.8,2470.39,13.32,0.059,247.3
2019-12-31T07:46:03,42.805,6.029,-0.017,-0.023,-0.027,109.0,110.0,105.0,13.4,1505.3,325.5,-0.7,1.8,2470.405,13.32,0.028,216.5
2019-12-31T07:49:03,42.805,6.029,-0.038,-0.018,-0.018,109.0,110.0,105.0,13.4,1505.3,327.2,-0.7,1.9,2470.372,13.32,0.042,244.7
2019-12-31T07:52:03,42.805,6.029,-0.026,-0.04,0.007,109.0,109.0,106.0,13.4,1505.3,324.6,-0.7,1.9,2470.404,13.32,0.047,213.0
2019-12-31T07:55:03,42.805,6.029,-0.041,-0.025,-0.023,110.0,109.0,105.0,13.4,1505.3,327.9,-0.7,1.9,2470.358,13.32,0.048,238.6
2019-12-31T07:58:03,42.805,6.029,-0.042,-0.016,-0.046,111.0,110.0,105.0,13.3,1505.3,326.5,-0.7,1.8,2470.395,13.32,0.044,249.1
2019-12-31T08:04:03,42.805,6.029,-0.024,-0.049,-0.001,109.0,108.0,104.0,13.4,1505.2,326.8,-0.8,1.8,2470.401,13.3,0.054,206.1
2019-12-31T08:07:03,42.805,6.029,-0.028,-0.023,-0.054,108.0,110.0,104.0,13.3,1505.3,326.5,-0.7,1.8,2470.425,13.31,0.036,230.6
2019-12-31T08:10:03,42.805,6.029,-0.057,-0.034,-0.018,109.0,108.0,104.0,13.3,1505.3,328.3,-0.7,1.8,2470.38,13.32,0.066,239.2
2019-12-31T08:13:03,42.805,6.029,-0.029,-0.031,-0.016,109.0,109.0,105.0,13.4,1505.3,326.0,-0.7,1.8,2470.41,13.32,0.042,223.1
2019-12-31T08:16:03,42.805,6.029,-0.019,-0.053,-0.01,108.0,107.0,104.0,13.4,1505.3,323.9,-0.7,1.8,2470.435,13.32,0.056,199.7
2019-12-31T08:19:03,42.805,6.029,-0.033,-0.008,-0.021,109.0,109.0,105.0,13.4,1505.3,325.8,-0.7,1.9,2470.418,13.32,0.033,256.4
2019-12-31T08:22:03,42.805,6.029,-0.027,-0.015,-0.005,109.0,109.0,106.0,13.3,1505.3,328.0,-0.7,1.8,2470.417,13.32,0.03,240.9
2019-12-31T08:25:03,42.805,6.029,-0.043,-0.031,-0.011,109.0,110.0,105.0,13.4,1505.3,326.8,-0.7,1.8,2470.399,13.32,0.053,234.2
2019-12-31T08:28:03,42.805,6.029,-0.038,-0.032,-0.013,108.0,110.0,104.0,13.4,1505.3,328.6,-0.7,1.9,2470.405,13.32,0.049,229.9
2019-12-31T08:31:03,42.805,6.029,-0.046,-0.031,0.004,109.0,110.0,105.0,13.3,1505.3,327.0,-0.7,1.8,2470.448,13.32,0.055,236.0
2019-12-31T08:34:03,42.805,6.029,-0.05,-0.023,-0.016,107.0,107.0,105.0,13.3,1505.3,325.5,-0.7,1.8,2470.42,13.32,0.055,245.3
2019-12-31T08:37:03,42.805,6.029,-0.038,-0.032,-0.042,109.0,110.0,104.0,13.4,1505.3,327.8,-0.7,1.9,2470.416,13.32,0.049,229.9
2019-12-31T08:40:03,42.805,6.029,-0.029,-0.024,-0.029,107.0,109.0,104.0,13.4,1505.3,327.2,-0.7,1.8,2470.457,13.32,0.037,230.4
2019-12-31T08:43:03,42.805,6.029,-0.031,-0.014,0.004,110.0,109.0,104.0,13.3,1505.3,326.0,-0.7,1.8,2470.427,13.32,0.034,245.7
2019-12-31T08:46:03,42.805,6.029,-0.032,-0.032,-0.019,108.0,110.0,104.0,13.4,1505.3,326.9,-0.7,1.8,2470.414,13.32,0.045,225.0
2019-12-31T08:49:03,42.805,6.029,-0.06,-0.021,-0.064,109.0,108.0,104.0,13.3,1505.3,326.5,-0.7,1.8,2470.44,13.32,0.063,250.7
2019-12-31T08:52:03,42.805,6.029,-0.045,-0.033,-0.023,109.0,110.0,106.0,13.3,1505.3,325.5,-0.7,1.8,2470.438,13.32,0.055,233.7
2019-12-31T08:55:03,42.805,6.029,-0.041,-0.026,-0.018,110.0,108.0,104.0,13.4,1505.3,323.5,-0.7,1.8,2470.438,13.32,0.048,237.6
2019-12-31T08:58:03,42.805,6.029,-0.03,-0.024,-0.025,110.0,111.0,105.0,13.3,1505.3,324.3,-0.8,1.8,2470.475,13.32,0.038,231.3
2019-12-31T09:04:03,42.805,6.029,-0.021,-0.029,-0.048,107.0,108.0,104.0,13.4,1505.2,325.4,-0.7,1.8,2470.496,13.3,0.035,215.9
2019-12-31T09:07:03,42.805,6.029,-0.041,-0.024,-0.033,107.0,110.0,105.0,13.4,1505.3,326.7,-0.7,1.8,2470.513,13.31,0.047,239.7
2019-12-31T09:10:03,42.805,6.029,-0.049,-0.038,-0.011,108.0,109.0,105.0,13.4,1505.3,325.7,-0.7,1.8,2470.509,13.31,0.062,232.2
2019-12-31T09:13:03,42.805,6.029,-0.04,-0.023,0.0,109.0,109.0,104.0,13.4,1505.3,326.4,-0.7,1.8,2470.441,13.32,0.046,240.1
2019-12-31T09:16:03,42.805,6.029,-0.04,-0.028,-0.018,108.0,109.0,104.0,13.4,1505.3,328.0,-0.7,1.8,2470.485,13.32,0.048,235.0
2019-12-31T09:19:03,42.805,6.029,-0.034,-0.007,-0.007,110.0,109.0,103.0,13.3,1505.3,326.8,-0.7,1.8,2470.47,13.32,0.034,258.4
2019-12-31T09:22:03,42.805,6.029,-0.043,-0.015,-0.023,110.0,110.0,107.0,13.4,1505.3,328.0,-0.7,1.8,2470.474,13.32,0.045,250.8
2019-12-31T09:25:03,42.805,6.029,-0.053,-0.017,-0.03,108.0,108.0,105.0,13.4,1505.3,324.3,-0.7,1.9,2470.461,13.32,0.055,252.2
2019-12-31T09:28:03,42.805,6.029,-0.043,-0.031,-0.043,108.0,109.0,105.0,13.3,1505.3,325.6,-0.7,1.8,2470.486,13.32,0.053,234.2
2019-12-31T09:31:03,42.805,6.029,-0.028,-0.013,-0.002,109.0,110.0,104.0,13.3,1505.3,325.9,-0.7,1.8,2470.446,13.32,0.03,245.1
2019-12-31T09:34:03,42.805,6.029,-0.027,-0.004,-0.027,108.0,109.0,104.0,13.3,1505.3,325.0,-0.7,1.8,2470.511,13.32,0.027,261.6
2019-12-31T09:37:03,42.805,6.029,-0.035,-0.016,-0.015,109.0,108.0,105.0,13.3,1505.3,323.5,-0.7,1.8,2470.501,13.32,0.038,245.4
2019-12-31T09:40:03,42.805,6.029,-0.036,-0.007,-0.007,109.0,110.0,106.0,13.4,1505.3,326.1,-0.7,1.8,2470.469,13.32,0.036,259.0
2019-12-31T09:43:03,42.805,6.029,-0.046,-0.037,-0.029,109.0,109.0,104.0,13.3,1505.3,326.9,-0.7,1.8,2470.509,13.32,0.059,231.2
2019-12-31T09:46:03,42.805,6.029,-0.049,-0.025,-0.03,109.0,109.0,105.0,13.4,1505.3,324.7,-0.7,1.8,2470.498,13.32,0.055,243.0
2019-12-31T09:49:03,42.805,6.029,-0.067,-0.042,-0.05,109.0,108.0,105.0,13.3,1505.3,325.3,-0.7,1.8,2470.43,13.32,0.079,237.9
2019-12-31T09:52:03,42.805,6.029,-0.06,-0.016,-0.025,108.0,110.0,106.0,13.3,1505.3,328.3,-0.7,1.8,2470.499,13.32,0.062,255.1
2019-12-31T09:55:03,42.805,6.029,-0.037,-0.026,0.0,108.0,109.0,105.0,13.4,1505.3,328.5,-0.7,1.8,2470.486,13.32,0.045,234.9